| time (UTC) | temp F | wind direction | speed MPH | gust MPH | rain 1hr in | rain 24hr in | rain mn in | humidity % | barometer mb |
| 20260904092007 | 71 | 293 | 4.0 | 6.0 | 0.00 | 0.00 | 0.00 | 58 | 1023.9 |
| 20260904091507 | 71 | 304 | 4.0 | 6.0 | 0.00 | 0.00 | 0.00 | 57 | 1024.0 |
| 20260904091005 | 71 | 309 | 5.0 | 7.0 | 0.00 | 0.00 | 0.00 | 59 | 1024.0 |
| 20260904090503 | 70 | 299 | 4.0 | 6.0 | 0.00 | 0.00 | 0.00 | 59 | 1024.0 |
| 20260904090013 | 70 | 309 | 4.0 | 6.0 | 0.00 | 0.00 | 0.00 | 59 | 1024.1 |
| 20260904085501 | 70 | 309 | 4.0 | 6.0 | 0.00 | 0.00 | 0.00 | 60 | 1024.2 |
| 20260904085103 | 70 | 304 | 3.0 | 6.0 | 0.00 | 0.00 | 0.00 | 61 | 1024.3 |
| 20260904084600 | 69 | 304 | 4.0 | 6.0 | 0.00 | 0.00 | 0.00 | 61 | 1024.2 |
| 20260904084057 | 69 | 297 | 4.0 | 6.0 | 0.00 | 0.00 | 0.00 | 63 | 1024.3 |
| 20260904083556 | 69 | 318 | 3.0 | 5.0 | 0.00 | 0.00 | 0.00 | 62 | 1024.3 |
| 20260904083139 | 68 | 322 | 3.0 | 5.0 | 0.00 | 0.00 | 0.00 | 63 | 1024.3 |
| 20260904082553 | 68 | 309 | 2.0 | 5.0 | 0.00 | 0.00 | 0.00 | 63 | 1024.4 |
| 20260904082052 | 68 | 309 | 3.0 | 8.0 | 0.00 | 0.00 | 0.00 | 64 | 1024.5 |
| 20260904081552 | 68 | 309 | 4.0 | 8.0 | 0.00 | 0.00 | 0.00 | 64 | 1024.5 |
| 20260904081049 | 67 | 299 | 4.0 | 6.0 | 0.00 | 0.00 | 0.00 | 67 | 1024.5 |
| 20260904080547 | 67 | 309 | 3.0 | 6.0 | 0.00 | 0.00 | 0.00 | 65 | 1024.5 |
| 20260904080046 | 67 | 309 | 4.0 | 6.0 | 0.00 | 0.00 | 0.00 | 67 | 1024.5 |
| 20260904075546 | 66 | 314 | 4.0 | 8.0 | 0.00 | 0.00 | 0.00 | 65 | 1024.5 |
| 20260904075045 | 66 | 318 | 5.0 | 8.0 | 0.00 | 0.00 | 0.00 | 67 | 1024.6 |
| 20260904074543 | 66 | 309 | 4.0 | 6.0 | 0.00 | 0.00 | 0.00 | 69 | 1024.6 |
| 20260904074042 | 65 | 304 | 4.0 | 6.0 | 0.00 | 0.00 | 0.00 | 68 | 1024.7 |
| 20260904073541 | 65 | 314 | 3.0 | 6.0 | 0.00 | 0.00 | 0.00 | 68 | 1024.7 |
| 20260904073040 | 65 | 318 | 4.0 | 8.0 | 0.00 | 0.00 | 0.00 | 69 | 1024.7 |
| 20260904072539 | 64 | 304 | 4.0 | 8.0 | 0.00 | 0.00 | 0.00 | 71 | 1024.7 |
| 20260904072038 | 64 | 309 | 3.0 | 5.0 | 0.00 | 0.00 | 0.00 | 74 | 1024.8 |
| 20260904071545 | 64 | 309 | 4.0 | 5.0 | 0.00 | 0.00 | 0.00 | 74 | 1024.8 |
| 20260904071036 | 63 | 314 | 3.0 | 6.0 | 0.00 | 0.00 | 0.00 | 73 | 1024.8 |
| 20260904070536 | 63 | 309 | 4.0 | 6.0 | 0.00 | 0.00 | 0.00 | 74 | 1024.9 |
| 20260904070105 | 64 | 309 | 3.0 | 6.0 | 0.00 | 0.00 | 0.00 | 74 | 1025.1 |
| 20260904065532 | 64 | 309 | 4.0 | 6.0 | 0.00 | 0.00 | 0.00 | 73 | 1025.1 |
| 20260904065034 | 64 | 309 | 3.0 | 5.0 | 0.00 | 0.00 | 0.00 | 73 | 1025.2 |
| 20260904064530 | 64 | 314 | 3.0 | 5.0 | 0.00 | 0.00 | 0.00 | 72 | 1025.2 |
| 20260904064029 | 64 | 285 | 1.0 | 4.0 | 0.00 | 0.00 | 0.00 | 73 | 1025.2 |
| 20260904063533 | 64 | 241 | 1.0 | 2.0 | 0.00 | 0.00 | 0.00 | 74 | 1025.2 |
| 20260904063033 | 64 | 241 | 0.0 | 0.0 | 0.00 | 0.00 | 0.00 | 78 | 1025.2 |
| 20260904062629 | 64 | 241 | 0.0 | 0.0 | 0.00 | 0.00 | 0.00 | 78 | 1025.3 |
| 20260904062028 | 63 | 241 | 0.0 | 0.0 | 0.00 | 0.00 | 0.00 | 78 | 1025.3 |
| 20260904061530 | 62 | 241 | 0.0 | 0.0 | 0.00 | 0.00 | 0.00 | 78 | 1025.3 |
| 20260904061026 | 62 | 241 | 0.0 | 0.0 | 0.00 | 0.00 | 0.00 | 79 | 1025.3 |
| 20260904060526 | 62 | 241 | 0.0 | 0.0 | 0.00 | 0.00 | 0.00 | 80 | 1025.4 |
| 20260904060030 | 62 | 241 | 0.0 | 0.0 | 0.00 | 0.00 | 0.00 | 80 | 1025.4 |
| 20260904055524 | 62 | 241 | 0.0 | 0.0 | 0.00 | 0.00 | 0.00 | 82 | 1025.3 |
| 20260904055022 | 61 | 241 | 0.0 | 0.0 | 0.00 | 0.00 | 0.00 | 81 | 1025.3 |
| 20260904054522 | 61 | 241 | 0.0 | 0.0 | 0.00 | 0.00 | 0.00 | 80 | 1025.4 |
| 20260904054021 | 60 | 241 | 0.0 | 0.0 | 0.00 | 0.00 | 0.00 | 81 | 1025.4 |
| 20260904053522 | 60 | 241 | 0.0 | 0.0 | 0.00 | 0.00 | 0.00 | 80 | 1025.4 |
| 20260904053039 | 60 | 241 | 0.0 | 0.0 | 0.00 | 0.00 | 0.00 | 81 | 1025.5 |
| 20260904052523 | 59 | 241 | 0.0 | 0.0 | 0.00 | 0.00 | 0.00 | 83 | 1025.5 |
| 20260904052018 | 59 | 241 | 0.0 | 0.0 | 0.00 | 0.00 | 0.00 | 82 | 1025.5 |
| 20260904051524 | 59 | 241 | 0.0 | 0.0 | 0.00 | 0.00 | 0.00 | 82 | 1025.4 |
| 20260904051015 | 59 | 241 | 0.0 | 0.0 | 0.00 | 0.00 | 0.00 | 81 | 1025.4 |
| 20260904050514 | 59 | 241 | 0.0 | 0.0 | 0.00 | 0.00 | 0.00 | 81 | 1025.3 |
| 20260904050014 | 59 | 241 | 0.0 | 0.0 | 0.00 | 0.00 | 0.00 | 80 | 1025.3 |
| 20260904045514 | 59 | 241 | 0.0 | 0.0 | 0.00 | 0.00 | 0.00 | 80 | 1025.3 |
| 20260904045013 | 59 | 241 | 0.0 | 0.0 | 0.00 | 0.00 | 0.00 | 80 | 1025.4 |
| 20260904044512 | 59 | 241 | 0.0 | 0.0 | 0.00 | 0.00 | 0.00 | 80 | 1025.5 |
| 20260904044011 | 59 | 241 | 0.0 | 0.0 | 0.00 | 0.00 | 0.00 | 79 | 1025.4 |
| 20260904043511 | 59 | 241 | 0.0 | 0.0 | 0.00 | 0.00 | 0.00 | 80 | 1025.5 |
| 20260904043010 | 60 | 241 | 0.0 | 0.0 | 0.00 | 0.00 | 0.00 | 80 | 1025.4 |
| 20260904042512 | 60 | 241 | 0.0 | 0.0 | 0.00 | 0.00 | 0.00 | 79 | 1025.3 |
| 20260904042009 | 60 | 241 | 0.0 | 0.0 | 0.00 | 0.00 | 0.00 | 79 | 1025.3 |
| 20260904041508 | 60 | 241 | 0.0 | 0.0 | 0.00 | 0.00 | 0.00 | 79 | 1025.2 |
| 20260904041007 | 60 | 241 | 0.0 | 0.0 | 0.00 | 0.00 | 0.00 | 78 | 1025.3 |
| 20260904040507 | 60 | 241 | 0.0 | 0.0 | 0.00 | 0.00 | 0.00 | 79 | 1025.4 |
| 20260904040007 | 60 | 241 | 0.0 | 0.0 | 0.00 | 0.00 | 0.00 | 79 | 1025.4 |
| 20260904035506 | 60 | 241 | 0.0 | 0.0 | 0.00 | 0.00 | 0.00 | 79 | 1025.4 |
| 20260904035004 | 60 | 241 | 0.0 | 0.0 | 0.00 | 0.00 | 0.00 | 79 | 1025.4 |
| 20260904034505 | 61 | 241 | 0.0 | 0.0 | 0.00 | 0.00 | 0.00 | 79 | 1025.4 |
| 20260904034004 | 61 | 241 | 0.0 | 0.0 | 0.00 | 0.00 | 0.00 | 78 | 1025.4 |
| 20260904033505 | 61 | 241 | 0.0 | 0.0 | 0.00 | 0.00 | 0.00 | 78 | 1025.4 |
| 20260904033005 | 61 | 241 | 0.0 | 0.0 | 0.00 | 0.00 | 0.00 | 78 | 1025.4 |
| 20260904032505 | 61 | 241 | 0.0 | 0.0 | 0.00 | 0.00 | 0.00 | 78 | 1025.4 |
| 20260904032003 | 61 | 241 | 0.0 | 0.0 | 0.00 | 0.00 | 0.00 | 78 | 1025.4 |
| 20260904031503 | 61 | 241 | 0.0 | 0.0 | 0.00 | 0.00 | 0.00 | 78 | 1025.4 |
| 20260904031003 | 61 | 241 | 0.0 | 0.0 | 0.00 | 0.00 | 0.00 | 78 | 1025.5 |
| 20260904030501 | 61 | 241 | 0.0 | 0.0 | 0.00 | 0.00 | 0.00 | 78 | 1025.5 |
| 20260904030001 | 61 | 241 | 0.0 | 0.0 | 0.00 | 0.00 | 0.00 | 81 | 1025.4 |
| 20260904025600 | 61 | 241 | 0.0 | 0.0 | 0.00 | 0.00 | 0.00 | 80 | 1025.4 |
| 20260904025059 | 62 | 241 | 0.0 | 0.0 | 0.00 | 0.00 | 0.00 | 77 | 1025.3 |
| 20260904024559 | 62 | 241 | 0.0 | 0.0 | 0.00 | 0.00 | 0.00 | 76 | 1025.4 |
| 20260904024100 | 62 | 241 | 0.0 | 0.0 | 0.00 | 0.00 | 0.00 | 77 | 1025.4 |
| 20260904023557 | 62 | 241 | 0.0 | 0.0 | 0.00 | 0.00 | 0.00 | 78 | 1025.5 |
| 20260904023058 | 62 | 241 | 0.0 | 0.0 | 0.00 | 0.00 | 0.00 | 78 | 1025.5 |
| 20260904022558 | 62 | 241 | 0.0 | 0.0 | 0.00 | 0.00 | 0.00 | 78 | 1025.5 |
| 20260904022056 | 62 | 241 | 0.0 | 0.0 | 0.00 | 0.00 | 0.00 | 78 | 1025.6 |
| 20260904021556 | 62 | 241 | 0.0 | 0.0 | 0.00 | 0.00 | 0.00 | 78 | 1025.7 |
| 20260904021054 | 62 | 241 | 0.0 | 0.0 | 0.00 | 0.00 | 0.00 | 77 | 1025.7 |
| 20260904020554 | 62 | 241 | 0.0 | 0.0 | 0.00 | 0.00 | 0.00 | 76 | 1025.7 |
| 20260904020053 | 62 | 241 | 0.0 | 0.0 | 0.00 | 0.00 | 0.00 | 76 | 1025.7 |
| 20260904015552 | 62 | 241 | 0.0 | 0.0 | 0.00 | 0.00 | 0.00 | 75 | 1025.7 |
| 20260904015052 | 62 | 241 | 0.0 | 0.0 | 0.00 | 0.00 | 0.00 | 74 | 1025.6 |
| 20260904014557 | 62 | 241 | 0.0 | 0.0 | 0.00 | 0.00 | 0.00 | 74 | 1025.7 |
| 20260904014052 | 63 | 241 | 0.0 | 0.0 | 0.00 | 0.00 | 0.00 | 72 | 1025.6 |
| 20260904013550 | 63 | 241 | 0.0 | 0.0 | 0.00 | 0.00 | 0.00 | 73 | 1025.7 |
| 20260904013050 | 62 | 241 | 0.0 | 0.0 | 0.00 | 0.00 | 0.00 | 73 | 1025.7 |
| 20260904012550 | 63 | 241 | 0.0 | 0.0 | 0.00 | 0.00 | 0.00 | 73 | 1025.8 |
| 20260904012050 | 63 | 241 | 0.0 | 0.0 | 0.00 | 0.00 | 0.00 | 72 | 1025.8 |
| 20260904011549 | 63 | 241 | 0.0 | 0.0 | 0.00 | 0.00 | 0.00 | 73 | 1025.8 |
| 20260904011048 | 63 | 241 | 0.0 | 0.0 | 0.00 | 0.00 | 0.00 | 73 | 1025.7 |
| 20260904010548 | 63 | 241 | 0.0 | 0.0 | 0.00 | 0.00 | 0.00 | 73 | 1025.7 |
| 20260904010049 | 63 | 241 | 0.0 | 0.0 | 0.00 | 0.00 | 0.00 | 73 | 1025.7 |
| 20260904005547 | 63 | 241 | 0.0 | 0.0 | 0.00 | 0.00 | 0.00 | 73 | 1025.7 |
| 20260904005046 | 63 | 241 | 0.0 | 0.0 | 0.00 | 0.00 | 0.00 | 73 | 1025.7 |
| 20260904004546 | 64 | 241 | 0.0 | 0.0 | 0.00 | 0.00 | 0.00 | 74 | 1025.8 |
| 20260904004046 | 63 | 241 | 0.0 | 0.0 | 0.00 | 0.00 | 0.00 | 73 | 1025.8 |
| 20260904003545 | 64 | 241 | 0.0 | 0.0 | 0.00 | 0.00 | 0.00 | 74 | 1025.8 |
| 20260904003045 | 64 | 241 | 0.0 | 0.0 | 0.00 | 0.00 | 0.00 | 74 | 1025.8 |
| 20260904002548 | 64 | 241 | 0.0 | 0.0 | 0.00 | 0.00 | 0.00 | 74 | 1025.8 |
| 20260904002044 | 64 | 241 | 0.0 | 0.0 | 0.00 | 0.00 | 0.00 | 74 | 1025.9 |
| 20260904001546 | 64 | 241 | 0.0 | 0.0 | 0.00 | 0.00 | 0.00 | 75 | 1026.0 |
| 20260904001042 | 64 | 241 | 0.0 | 0.0 | 0.00 | 0.00 | 0.00 | 74 | 1026.0 |
| 20260904000541 | 64 | 241 | 0.0 | 0.0 | 0.00 | 0.00 | 0.00 | 74 | 1026.0 |
| 20260904000050 | 64 | 241 | 0.0 | 0.0 | 0.00 | 0.00 | 0.00 | 73 | 1026.1 |
| 20260903235540 | 64 | 241 | 0.0 | 0.0 | 0.00 | 0.00 | 0.00 | 72 | 1026.0 |
| 20260903235042 | 64 | 241 | 0.0 | 0.0 | 0.00 | 0.00 | 0.00 | 73 | 1026.1 |
| 20260903234540 | 64 | 241 | 0.0 | 0.0 | 0.00 | 0.00 | 0.00 | 73 | 1026.2 |
| 20260903234039 | 64 | 241 | 0.0 | 0.0 | 0.00 | 0.00 | 0.00 | 73 | 1026.3 |
| 20260903233547 | 64 | 241 | 0.0 | 0.0 | 0.00 | 0.00 | 0.00 | 72 | 1026.4 |
| 20260903233038 | 64 | 241 | 0.0 | 0.0 | 0.00 | 0.00 | 0.00 | 71 | 1026.3 |
| 20260903232539 | 65 | 241 | 0.0 | 0.0 | 0.00 | 0.00 | 0.00 | 71 | 1026.4 |
| 20260903232039 | 64 | 241 | 0.0 | 0.0 | 0.00 | 0.00 | 0.00 | 71 | 1026.4 |
| 20260903231542 | 64 | 241 | 0.0 | 0.0 | 0.00 | 0.00 | 0.00 | 72 | 1026.5 |
| 20260903231037 | 64 | 241 | 0.0 | 0.0 | 0.00 | 0.00 | 0.00 | 71 | 1026.5 |
| 20260903230538 | 64 | 241 | 0.0 | 0.0 | 0.00 | 0.00 | 0.00 | 71 | 1026.6 |
| 20260903230046 | 64 | 241 | 0.0 | 0.0 | 0.00 | 0.00 | 0.00 | 70 | 1026.6 |
| 20260903225538 | 64 | 241 | 0.0 | 0.0 | 0.00 | 0.00 | 0.00 | 71 | 1026.6 |
| 20260903225036 | 64 | 241 | 0.0 | 0.0 | 0.00 | 0.00 | 0.00 | 71 | 1026.4 |
| 20260903224537 | 65 | 241 | 0.0 | 0.0 | 0.00 | 0.00 | 0.00 | 70 | 1026.6 |
| 20260903224037 | 65 | 241 | 0.0 | 0.0 | 0.00 | 0.00 | 0.00 | 70 | 1026.6 |
| 20260903223541 | 65 | 241 | 0.0 | 0.0 | 0.00 | 0.00 | 0.00 | 67 | 1026.6 |
| 20260903223035 | 65 | 241 | 0.0 | 0.0 | 0.00 | 0.00 | 0.00 | 68 | 1026.6 |
| 20260903222534 | 64 | 241 | 0.0 | 0.0 | 0.00 | 0.00 | 0.00 | 67 | 1026.5 |
| 20260903222037 | 64 | 241 | 0.0 | 0.0 | 0.00 | 0.00 | 0.00 | 71 | 1026.4 |
| 20260903221533 | 65 | 241 | 0.0 | 0.0 | 0.00 | 0.00 | 0.00 | 70 | 1026.3 |
| 20260903221031 | 65 | 241 | 0.0 | 3.0 | 0.00 | 0.00 | 0.00 | 72 | 1026.3 |
| 20260903220530 | 65 | 241 | 1.0 | 3.0 | 0.00 | 0.00 | 0.00 | 71 | 1026.3 |
| 20260903220029 | 66 | 241 | 0.0 | 0.0 | 0.00 | 0.00 | 0.00 | 68 | 1026.1 |
| 20260903215529 | 66 | 241 | 0.0 | 1.0 | 0.00 | 0.00 | 0.00 | 68 | 1026.2 |
| 20260903215028 | 66 | 241 | 0.0 | 1.0 | 0.00 | 0.00 | 0.00 | 65 | 1026.1 |
| 20260903214531 | 66 | 241 | 0.0 | 1.0 | 0.00 | 0.00 | 0.00 | 64 | 1026.1 |
| 20260903214028 | 66 | 241 | 0.0 | 2.0 | 0.00 | 0.00 | 0.00 | 65 | 1026.1 |
| 20260903213528 | 66 | 241 | 0.0 | 2.0 | 0.00 | 0.00 | 0.00 | 64 | 1026.1 |
| 20260903213039 | 66 | 241 | 0.0 | 3.0 | 0.00 | 0.00 | 0.00 | 64 | 1026.1 |
| 20260903212534 | 66 | 241 | 1.0 | 3.0 | 0.00 | 0.00 | 0.00 | 65 | 1026.2 |
| 20260903212028 | 66 | 240 | 0.0 | 3.0 | 0.00 | 0.00 | 0.00 | 66 | 1026.2 |
| 20260903211532 | 66 | 240 | 1.0 | 3.0 | 0.00 | 0.00 | 0.00 | 68 | 1026.2 |
| 20260903211027 | 66 | 240 | 0.0 | 1.0 | 0.00 | 0.00 | 0.00 | 63 | 1026.3 |
| 20260903210527 | 66 | 240 | 0.0 | 2.0 | 0.00 | 0.00 | 0.00 | 62 | 1026.2 |
| 20260903210027 | 66 | 240 | 0.0 | 2.0 | 0.00 | 0.00 | 0.00 | 62 | 1026.4 |
| 20260903205526 | 66 | 240 | 0.0 | 2.0 | 0.00 | 0.00 | 0.00 | 64 | 1026.3 |
| 20260903205028 | 66 | 240 | 0.0 | 0.0 | 0.00 | 0.00 | 0.00 | 65 | 1026.2 |
| 20260903204527 | 66 | 240 | 0.0 | 0.0 | 0.00 | 0.00 | 0.00 | 61 | 1026.1 |
| 20260903204027 | 67 | 240 | 0.0 | 0.0 | 0.00 | 0.00 | 0.00 | 66 | 1026.1 |
| 20260903203528 | 67 | 240 | 0.0 | 0.0 | 0.00 | 0.00 | 0.00 | 64 | 1026.0 |
| 20260903203026 | 67 | 240 | 0.0 | 2.0 | 0.00 | 0.00 | 0.00 | 62 | 1026.0 |
| 20260903202528 | 67 | 240 | 0.0 | 2.0 | 0.00 | 0.00 | 0.00 | 61 | 1026.1 |
| 20260903202026 | 67 | 240 | 1.0 | 2.0 | 0.00 | 0.00 | 0.00 | 61 | 1025.9 |
| 20260903201533 | 67 | 240 | 0.0 | 0.0 | 0.00 | 0.00 | 0.00 | 60 | 1025.8 |
| 20260903201030 | 67 | 240 | 0.0 | 0.0 | 0.00 | 0.00 | 0.00 | 60 | 1025.8 |
| 20260903200532 | 67 | 240 | 0.0 | 0.0 | 0.00 | 0.00 | 0.00 | 60 | 1025.8 |
| 20260903200025 | 67 | 240 | 0.0 | 0.0 | 0.00 | 0.00 | 0.00 | 60 | 1025.7 |
| 20260903195529 | 68 | 240 | 0.0 | 0.0 | 0.00 | 0.00 | 0.00 | 61 | 1025.7 |
| 20260903195029 | 68 | 240 | 0.0 | 0.0 | 0.00 | 0.00 | 0.00 | 60 | 1025.6 |
| 20260903194526 | 68 | 240 | 0.0 | 0.0 | 0.00 | 0.00 | 0.00 | 61 | 1025.6 |
| 20260903194024 | 68 | 240 | 0.0 | 0.0 | 0.00 | 0.00 | 0.00 | 61 | 1025.5 |
| 20260903193524 | 68 | 240 | 0.0 | 0.0 | 0.00 | 0.00 | 0.00 | 56 | 1025.5 |
| 20260903193024 | 68 | 240 | 0.0 | 0.0 | 0.00 | 0.00 | 0.00 | 58 | 1025.6 |
| 20260903192530 | 69 | 240 | 0.0 | 0.0 | 0.00 | 0.00 | 0.00 | 57 | 1025.5 |
| 20260903192025 | 69 | 240 | 0.0 | 0.0 | 0.00 | 0.00 | 0.00 | 57 | 1025.5 |
| 20260903191523 | 69 | 240 | 0.0 | 2.0 | 0.00 | 0.00 | 0.00 | 58 | 1025.5 |
| 20260903191024 | 69 | 240 | 0.0 | 3.0 | 0.00 | 0.00 | 0.00 | 57 | 1025.4 |
| 20260903190524 | 69 | 241 | 0.0 | 0.0 | 0.00 | 0.00 | 0.00 | 58 | 1025.4 |
| 20260903190024 | 69 | 241 | 0.0 | 1.0 | 0.00 | 0.00 | 0.00 | 57 | 1025.3 |
| 20260903185523 | 69 | 241 | 0.0 | 3.0 | 0.00 | 0.00 | 0.00 | 56 | 1025.3 |
| 20260903185023 | 70 | 243 | 0.0 | 3.0 | 0.00 | 0.00 | 0.00 | 57 | 1025.2 |
| 20260903184523 | 70 | 243 | 0.0 | 2.0 | 0.00 | 0.00 | 0.00 | 58 | 1025.3 |
| 20260903184022 | 70 | 244 | 0.0 | 2.0 | 0.00 | 0.00 | 0.00 | 54 | 1025.3 |
| 20260903183522 | 70 | 244 | 0.0 | 2.0 | 0.00 | 0.00 | 0.00 | 55 | 1025.2 |
| 20260903183023 | 70 | 266 | 0.0 | 2.0 | 0.00 | 0.00 | 0.00 | 55 | 1025.2 |
| 20260903182524 | 70 | 266 | 0.0 | 4.0 | 0.00 | 0.00 | 0.00 | 55 | 1025.1 |
| 20260903182023 | 70 | 266 | 2.0 | 4.0 | 0.00 | 0.00 | 0.00 | 55 | 1025.2 |
| 20260903181522 | 70 | 254 | 0.0 | 0.0 | 0.00 | 0.00 | 0.00 | 55 | 1025.1 |
| 20260903181021 | 71 | 254 | 0.0 | 0.0 | 0.00 | 0.00 | 0.00 | 54 | 1025.0 |
| 20260903180529 | 71 | 254 | 0.0 | 0.0 | 0.00 | 0.00 | 0.00 | 54 | 1025.0 |
| 20260903180031 | 71 | 254 | 0.0 | 0.0 | 0.00 | 0.00 | 0.00 | 54 | 1024.9 |
| 20260903175521 | 71 | 254 | 0.0 | 0.0 | 0.00 | 0.00 | 0.00 | 55 | 1025.0 |
| 20260903175021 | 71 | 254 | 0.0 | 0.0 | 0.00 | 0.00 | 0.00 | 55 | 1024.9 |
| 20260903174521 | 71 | 254 | 0.0 | 0.0 | 0.00 | 0.00 | 0.00 | 54 | 1024.9 |
| 20260903174020 | 71 | 304 | 0.0 | 0.0 | 0.00 | 0.00 | 0.00 | 55 | 1024.9 |
| 20260903173520 | 71 | 304 | 0.0 | 2.0 | 0.00 | 0.00 | 0.00 | 54 | 1024.8 |
| 20260903173020 | 71 | 304 | 0.0 | 2.0 | 0.00 | 0.00 | 0.00 | 55 | 1024.7 |
| 20260903172521 | 72 | 304 | 0.0 | 2.0 | 0.00 | 0.00 | 0.00 | 55 | 1024.8 |
| 20260903172021 | 72 | 304 | 0.0 | 2.0 | 0.00 | 0.00 | 0.00 | 55 | 1024.7 |
| 20260903171519 | 72 | 318 | 0.0 | 2.0 | 0.00 | 0.00 | 0.00 | 56 | 1024.7 |
| 20260903171019 | 72 | 318 | 0.0 | 0.0 | 0.00 | 0.00 | 0.00 | 55 | 1024.6 |
| 20260903170520 | 73 | 318 | 0.0 | 2.0 | 0.00 | 0.00 | 0.00 | 55 | 1024.6 |
| 20260903170020 | 73 | 318 | 0.0 | 2.0 | 0.00 | 0.00 | 0.00 | 54 | 1024.6 |
| 20260903165520 | 73 | 268 | 0.0 | 0.0 | 0.00 | 0.00 | 0.00 | 54 | 1024.5 |
| 20260903165019 | 73 | 268 | 0.0 | 2.0 | 0.00 | 0.00 | 0.00 | 54 | 1024.6 |
| 20260903164519 | 73 | 268 | 0.0 | 3.0 | 0.00 | 0.00 | 0.00 | 54 | 1024.6 |
| 20260903164019 | 73 | 268 | 1.0 | 5.0 | 0.00 | 0.00 | 0.00 | 53 | 1024.6 |
| 20260903163520 | 73 | 285 | 2.0 | 5.0 | 0.00 | 0.00 | 0.00 | 55 | 1024.5 |
| 20260903163018 | 73 | 281 | 1.0 | 4.0 | 0.00 | 0.00 | 0.00 | 54 | 1024.5 |
| 20260903162519 | 73 | 281 | 2.0 | 4.0 | 0.00 | 0.00 | 0.00 | 52 | 1024.5 |
| 20260903162022 | 73 | 272 | 0.0 | 3.0 | 0.00 | 0.00 | 0.00 | 55 | 1024.5 |
| 20260903161519 | 73 | 272 | 0.0 | 3.0 | 0.00 | 0.00 | 0.00 | 54 | 1024.4 |
| 20260903161017 | 73 | 287 | 0.0 | 3.0 | 0.00 | 0.00 | 0.00 | 55 | 1024.4 |
| 20260903160517 | 73 | 286 | 1.0 | 4.0 | 0.00 | 0.00 | 0.00 | 53 | 1024.4 |
| 20260903160019 | 73 | 295 | 1.0 | 5.0 | 0.00 | 0.00 | 0.00 | 52 | 1024.3 |
| 20260903155517 | 73 | 314 | 1.0 | 5.0 | 0.00 | 0.00 | 0.00 | 52 | 1024.4 |
| 20260903155019 | 73 | 304 | 2.0 | 5.0 | 0.00 | 0.00 | 0.00 | 51 | 1024.5 |
| 20260903154517 | 73 | 284 | 1.0 | 9.0 | 0.00 | 0.00 | 0.00 | 53 | 1024.5 |
| 20260903154017 | 73 | 287 | 3.0 | 12.0 | 0.00 | 0.00 | 0.00 | 51 | 1024.5 |
| 20260903153517 | 73 | 299 | 5.0 | 12.0 | 0.00 | 0.00 | 0.00 | 52 | 1024.5 |
| 20260903153016 | 73 | 288 | 2.0 | 5.0 | 0.00 | 0.00 | 0.00 | 52 | 1024.5 |
| 20260903152516 | 73 | 290 | 3.0 | 6.0 | 0.00 | 0.00 | 0.00 | 51 | 1024.5 |
| 20260903152015 | 73 | 291 | 3.0 | 13.0 | 0.00 | 0.00 | 0.00 | 51 | 1024.5 |
| 20260903151515 | 73 | 345 | 2.0 | 11.0 | 0.00 | 0.00 | 0.00 | 51 | 1024.6 |
| 20260903151015 | 73 | 290 | 2.0 | 11.0 | 0.00 | 0.00 | 0.00 | 51 | 1024.6 |
| 20260903150515 | 73 | 342 | 6.0 | 10.0 | 0.00 | 0.00 | 0.00 | 52 | 1024.6 |
| 20260903150015 | 73 | 289 | 7.0 | 13.0 | 0.00 | 0.00 | 0.00 | 53 | 1024.7 |
| 20260903145517 | 73 | 318 | 6.0 | 13.0 | 0.00 | 0.00 | 0.00 | 52 | 1024.7 |
| 20260903145018 | 73 | 328 | 2.0 | 13.0 | 0.00 | 0.00 | 0.00 | 51 | 1024.5 |
| 20260903144518 | 73 | 247 | 7.0 | 13.0 | 0.00 | 0.00 | 0.00 | 52 | 1024.6 |
| 20260903144014 | 73 | 341 | 9.0 | 13.0 | 0.00 | 0.00 | 0.00 | 52 | 1024.6 |
| 20260903143513 | 73 | 280 | 5.0 | 18.0 | 0.00 | 0.00 | 0.00 | 51 | 1024.6 |
| 20260903143013 | 74 | 263 | 11.0 | 18.0 | 0.00 | 0.00 | 0.00 | 50 | 1024.5 |
| 20260903142515 | 74 | 322 | 10.0 | 15.0 | 0.00 | 0.00 | 0.00 | 51 | 1024.5 |
| 20260903142014 | 74 | 314 | 5.0 | 13.0 | 0.00 | 0.00 | 0.00 | 52 | 1024.4 |
| 20260903141517 | 74 | 309 | 7.0 | 16.0 | 0.00 | 0.00 | 0.00 | 51 | 1024.3 |
| 20260903141013 | 74 | 314 | 6.0 | 16.0 | 0.00 | 0.00 | 0.00 | 51 | 1024.4 |
| 20260903140513 | 73 | 281 | 5.0 | 14.0 | 0.00 | 0.00 | 0.00 | 53 | 1024.5 |
| 20260903140015 | 73 | 326 | 6.0 | 14.0 | 0.00 | 0.00 | 0.00 | 52 | 1024.3 |
| 20260903135512 | 73 | 339 | 8.0 | 13.0 | 0.00 | 0.00 | 0.00 | 51 | 1024.4 |
| 20260903135012 | 73 | 318 | 6.0 | 11.0 | 0.00 | 0.00 | 0.00 | 53 | 1024.4 |
| 20260903134512 | 73 | 309 | 3.0 | 9.0 | 0.00 | 0.00 | 0.00 | 52 | 1024.4 |
| 20260903134011 | 73 | 328 | 5.0 | 12.0 | 0.00 | 0.00 | 0.00 | 54 | 1024.5 |
| 20260903133510 | 73 | 314 | 7.0 | 12.0 | 0.00 | 0.00 | 0.00 | 53 | 1024.5 |
| 20260903133010 | 74 | 323 | 4.0 | 10.0 | 0.00 | 0.00 | 0.00 | 53 | 1024.5 |
| 20260903132510 | 73 | 329 | 4.0 | 13.0 | 0.00 | 0.00 | 0.00 | 52 | 1024.6 |
| 20260903132010 | 74 | 326 | 5.0 | 13.0 | 0.00 | 0.00 | 0.00 | 52 | 1024.6 |
| 20260903131512 | 74 | 327 | 7.0 | 15.0 | 0.00 | 0.00 | 0.00 | 52 | 1024.6 |
| 20260903131010 | 74 | 282 | 7.0 | 12.0 | 0.00 | 0.00 | 0.00 | 52 | 1024.6 |
| 20260903130514 | 74 | 333 | 5.0 | 15.0 | 0.00 | 0.00 | 0.00 | 53 | 1024.7 |
| 20260903130009 | 74 | 304 | 9.0 | 15.0 | 0.00 | 0.00 | 0.00 | 52 | 1024.7 |
| 20260903125509 | 74 | 304 | 8.0 | 13.0 | 0.00 | 0.00 | 0.00 | 52 | 1024.7 |
| 20260903125012 | 74 | 349 | 7.0 | 10.0 | 0.00 | 0.00 | 0.00 | 54 | 1024.8 |
| 20260903124512 | 74 | 314 | 6.0 | 9.0 | 0.00 | 0.00 | 0.00 | 53 | 1024.8 |
| 20260903124012 | 74 | 318 | 4.0 | 9.0 | 0.00 | 0.00 | 0.00 | 55 | 1024.8 |
| 20260903123508 | 74 | 267 | 5.0 | 11.0 | 0.00 | 0.00 | 0.00 | 55 | 1024.7 |
| 20260903123008 | 74 | 290 | 5.0 | 11.0 | 0.00 | 0.00 | 0.00 | 53 | 1024.7 |
| 20260903122507 | 74 | 330 | 6.0 | 10.0 | 0.00 | 0.00 | 0.00 | 52 | 1024.7 |
| 20260903122006 | 74 | 322 | 5.0 | 10.0 | 0.00 | 0.00 | 0.00 | 53 | 1024.7 |
| 20260903121611 | 75 | 326 | 4.0 | 10.0 | 0.00 | 0.00 | 0.00 | 55 | 1024.7 |
| 20260903121005 | 75 | 324 | 5.0 | 10.0 | 0.00 | 0.00 | 0.00 | 52 | 1024.8 |
| 20260903120505 | 75 | 326 | 5.0 | 11.0 | 0.00 | 0.00 | 0.00 | 55 | 1024.7 |
| 20260903120005 | 74 | 326 | 6.0 | 11.0 | 0.00 | 0.00 | 0.00 | 54 | 1024.7 |
| 20260903115504 | 75 | 298 | 5.0 | 9.0 | 0.00 | 0.00 | 0.00 | 52 | 1024.8 |
| 20260903115003 | 74 | 309 | 3.0 | 10.0 | 0.00 | 0.00 | 0.00 | 52 | 1024.8 |
| 20260903114502 | 74 | 304 | 5.0 | 10.0 | 0.00 | 0.00 | 0.00 | 53 | 1024.8 |
| 20260903114001 | 74 | 298 | 5.0 | 9.0 | 0.00 | 0.00 | 0.00 | 54 | 1024.8 |
| 20260903113501 | 74 | 283 | 4.0 | 8.0 | 0.00 | 0.00 | 0.00 | 54 | 1024.6 |
| 20260903113100 | 74 | 296 | 3.0 | 10.0 | 0.00 | 0.00 | 0.00 | 57 | 1024.6 |
| 20260903112559 | 74 | 304 | 5.0 | 10.0 | 0.00 | 0.00 | 0.00 | 57 | 1024.7 |
| 20260903112058 | 73 | 314 | 3.0 | 12.0 | 0.00 | 0.00 | 0.00 | 55 | 1024.8 |
| 20260903111605 | 73 | 309 | 4.0 | 12.0 | 0.00 | 0.00 | 0.00 | 56 | 1024.8 |
| 20260903111056 | 73 | 314 | 4.0 | 9.0 | 0.00 | 0.00 | 0.00 | 59 | 1024.8 |
| 20260903110555 | 73 | 314 | 4.0 | 10.0 | 0.00 | 0.00 | 0.00 | 57 | 1024.9 |
| 20260903110054 | 73 | 304 | 6.0 | 10.0 | 0.00 | 0.00 | 0.00 | 57 | 1025.0 |
| 20260903105553 | 73 | 309 | 4.0 | 8.0 | 0.00 | 0.00 | 0.00 | 60 | 1025.0 |
| 20260903105053 | 73 | 304 | 2.0 | 9.0 | 0.00 | 0.00 | 0.00 | 57 | 1024.9 |
| 20260903104611 | 73 | 293 | 4.0 | 9.0 | 0.00 | 0.00 | 0.00 | 56 | 1024.8 |
| 20260903104052 | 73 | 314 | 4.0 | 6.0 | 0.00 | 0.00 | 0.00 | 56 | 1025.1 |
| 20260903103548 | 73 | 282 | 0.0 | 6.0 | 0.00 | 0.00 | 0.00 | 54 | 1025.2 |
| 20260903103058 | 72 | 314 | 4.0 | 6.0 | 0.00 | 0.00 | 0.00 | 61 | 1025.3 |
| 20260903102546 | 72 | 309 | 3.0 | 8.0 | 0.00 | 0.00 | 0.00 | 60 | 1025.3 |
| 20260903102044 | 71 | 314 | 2.0 | 5.0 | 0.00 | 0.00 | 0.00 | 57 | 1025.4 |
| 20260903101550 | 71 | 314 | 2.0 | 5.0 | 0.00 | 0.00 | 0.00 | 61 | 1025.5 |
| 20260903101043 | 71 | 314 | 3.0 | 6.0 | 0.00 | 0.00 | 0.00 | 61 | 1025.6 |
| 20260903100543 | 71 | 314 | 3.0 | 6.0 | 0.00 | 0.00 | 0.00 | 63 | 1025.6 |
| 20260903100042 | 71 | 309 | 3.0 | 6.0 | 0.00 | 0.00 | 0.00 | 61 | 1025.7 |
| 20260903095540 | 70 | 266 | 2.0 | 5.0 | 0.00 | 0.00 | 0.00 | 63 | 1025.8 |
| 20260903095040 | 70 | 309 | 4.0 | 5.0 | 0.00 | 0.00 | 0.00 | 63 | 1025.9 |
| 20260903094545 | 70 | 309 | 4.0 | 5.0 | 0.00 | 0.00 | 0.00 | 63 | 1025.8 |
| 20260903094042 | 70 | 309 | 3.0 | 4.0 | 0.00 | 0.00 | 0.00 | 64 | 1025.8 |
| 20260903093538 | 70 | 309 | 0.0 | 5.0 | 0.00 | 0.00 | 0.00 | 63 | 1025.9 |
| 20260903093046 | 69 | 309 | 2.0 | 5.0 | 0.00 | 0.00 | 0.00 | 64 | 1025.8 |
| 20260903092536 | 69 | 304 | 2.0 | 5.0 | 0.00 | 0.00 | 0.00 | 67 | 1025.7 |